"Timestamp","TZ","WindDir_Mean (deg)","WindSpd_Mean (km/h)","WindSpd_Min (km/h)","WindSpd_Max (km/h)","Temp_Mean (deg)","RH_Mean (%)","MSLP_Mean (hPa)","Rain_Acc (mm)","Rain_Intensity (mm/h)","Hail_Acc (hits/cm2)","Hail_Intensity (hits/cm2hr)","Solar_Mean (W/m2)"
2022/07/29 00:00:00.001,n,151,1.44,0.36,7.56,10.9,74.1,1023.42,0,0,0,0,0.027847
2022/07/29 00:01:00.000,n,162,3.96,1.08,7.2,10.9,74,1023.42,0,0,0,0,0.031319
2022/07/29 00:02:00.000,n,157,5.04,1.44,6.84,10.9,74.1,1023.52,0,0,0,0,0.027847
2022/07/29 00:03:00.000,n,154,2.16,2.16,2.88,10.9,74,1023.52,0,0,0,0,0.030479
2022/07/29 00:04:00.007,n,172,2.16,1.44,2.52,10.9,74,1023.52,0,0,0,0,0.030479
2022/07/29 00:05:00.004,n,70,2.16,0.36,3.24,10.9,74,1023.52,0,0,0,0,0.026131
2022/07/29 00:06:00.001,n,62,1.08,0.36,1.8,10.9,74,1023.52,0,0,0,0,0.027847
2022/07/29 00:07:00.000,n,166,1.8,0.36,5.4,10.9,73.8,1023.52,0,0,0,0,0.028725
2022/07/29 00:08:00.011,n,99,1.8,1.44,2.88,10.9,74.2,1023.52,0,0,0,0,0.028725
2022/07/29 00:09:00.009,n,136,1.44,0.36,2.88,10.9,74,1023.52,0,0,0,0,0.028725
2022/07/29 00:10:00.000,n,133,1.44,0.36,6.48,10.9,74.2,1023.52,0,0,0,0,0.026131
2022/07/29 00:11:00.000,n,83,2.16,1.44,2.52,10.9,74,1023.52,0,0,0,0,0.022621
2022/07/29 00:12:00.001,n,97,0.72,0.36,1.08,10.9,74,1023.52,0,0,0,0,0.026131
2022/07/29 00:13:00.000,n,61,1.8,1.44,2.16,10.9,74.1,1023.52,0,0,0,0,0.025253
2022/07/29 00:14:00.000,n,65,1.8,1.44,1.8,10.9,74.4,1023.52,0,0,0,0,0.024376
2022/07/29 00:15:00.007,n,357,3.6,1.44,6.48,10.9,74.6,1023.52,0,0,0,0,0.022621
2022/07/29 00:16:00.005,n,110,1.44,1.08,1.44,10.9,74.7,1023.52,0,0,0,0,0.024376
2022/07/29 00:17:00.003,n,205,1.08,0.36,3.96,10.9,74.8,1023.52,0,0,0,0,0.022621
2022/07/29 00:18:00.000,n,143,0.72,0.36,1.8,10.9,74.8,1023.52,0,0,0,0,0.023499
2022/07/29 00:19:00.000,n,18,1.44,0.36,4.32,10.9,75.1,1023.52,0,0,0,0,0.023499
2022/07/29 00:20:00.000,n,340,3.96,1.8,7.56,10.9,74.9,1023.62,0,0,0,0,0.019989
2022/07/29 00:21:00.000,n,31,3.24,2.52,5.4,10.9,75.1,1023.62,0,0,0,0,0.023499
2022/07/29 00:22:00.006,n,113,1.8,1.08,5.4,10.9,74.7,1023.62,0,0,0,0,0.019989
2022/07/29 00:23:00.004,n,74,1.8,1.08,2.88,10.9,74.5,1023.62,0,0,0,0,0.020905
2022/07/29 00:24:00.002,n,196,3.24,1.08,6.12,10.9,74,1023.62,0,0,0,0,0.023499
2022/07/29 00:25:00.000,n,136,1.44,1.08,1.44,10.8,74,1023.62,0,0,0,0,0.017395
2022/07/29 00:26:00.014,n,150,3.6,2.52,6.84,10.8,73.9,1023.62,0,0,0,0,0.020905
2022/07/29 00:27:00.011,n,307,1.08,0.36,1.8,10.8,73.5,1023.62,0,0,0,0,0.019989
2022/07/29 00:28:00.000,n,286,1.44,1.44,1.8,10.8,73.8,1023.62,0,0,0,0,0.023537
2022/07/29 00:29:00.003,n,292,1.8,1.8,2.16,10.8,73.7,1023.62,0,0,0,0,0.030479
2022/07/29 00:30:00.000,n,251,0.72,0.36,1.44,10.7,73.8,1023.62,0,0,0,0,0.026131
2022/07/29 00:31:00.000,n,131,1.8,1.44,2.16,10.7,73.6,1023.62,0,0,0,0,0.027885
2022/07/29 00:32:00.000,n,158,2.88,0.72,6.48,10.7,73.5,1023.72,0,0,0,0,0.028763
2022/07/29 00:33:00.007,n,70,1.08,0.36,5.4,10.7,73.6,1023.72,0,0,0,0,0.028763
2022/07/29 00:34:00.005,n,54,1.44,1.08,1.8,10.7,74,1023.72,0,0,0,0,0.026131
2022/07/29 00:35:00.001,n,68,0.72,0.72,1.08,10.7,74.2,1023.72,0,0,0,0,0.02964
2022/07/29 00:36:00.015,n,44,2.16,1.08,2.52,10.7,74.3,1023.72,0,0,0,0,0.025253
2022/07/29 00:37:00.000,n,28,1.44,1.08,1.44,10.7,74.4,1023.72,0,0,0,0,0.02964
2022/07/29 00:38:00.000,n,66,1.44,0.36,2.88,10.6,74.7,1023.72,0,0,0,0,0.027046
2022/07/29 00:39:00.000,n,28,1.08,0,1.8,10.6,74.8,1023.72,0,0,0,0,0.027885
2022/07/29 00:40:00.004,n,4,3.6,2.52,7.2,10.6,74.9,1023.72,0,0,0,0,0.023537
2022/07/29 00:41:00.001,n,176,3.24,2.88,4.32,10.6,74.9,1023.72,0,0,0,0,0.026131
2022/07/29 00:42:00.000,n,89,0.36,0.36,0.72,10.6,74.8,1023.72,0,0,0,0,0.026131
2022/07/29 00:43:00.011,n,154,3.24,1.08,4.68,10.6,74.8,1023.72,0,0,0,0,0.023537
2022/07/29 00:44:00.008,n,170,4.32,1.08,5.76,10.6,74.6,1023.72,0,0,0,0,0.026131
2022/07/29 00:45:00.005,n,121,1.08,0.36,5.4,10.6,74.6,1023.72,0,0,0,0,0.023537
2022/07/29 00:46:00.000,n,103,2.16,1.8,2.52,10.6,74.3,1023.72,0,0,0,0,0.027046
2022/07/29 00:47:00.000,n,120,2.88,0.36,3.96,10.6,74.1,1023.72,0,0,0,0,0.025253
2022/07/29 00:48:00.000,n,182,4.32,2.88,7.2,10.6,74,1023.72,0,0,0,0,0.023537
2022/07/29 00:49:00.000,n,225,3.24,2.52,3.96,10.6,73.9,1023.72,0,0,0,0,0.023537
2022/07/29 00:50:00.008,n,287,1.8,1.08,2.16,10.6,74,1023.72,0,0,0,0,0.019188
2022/07/29 00:51:00.005,n,222,2.52,1.8,2.88,10.6,74.1,1023.72,0,0,0,0,0.023537
2022/07/29 00:52:00.002,n,109,1.44,0.72,1.8,10.6,74.5,1023.72,0,0,0,0,0.022697
2022/07/29 00:53:00.000,n,29,2.52,1.08,3.96,10.6,74,1023.72,0,0,0,0,0.023537
2022/07/29 00:54:00.014,n,181,2.16,0.72,2.88,10.6,73.9,1023.72,0,0,0,0,0.020905
2022/07/29 00:55:00.000,n,38,2.88,0.72,4.68,10.6,74,1023.72,0,0,0,0,0.022697
2022/07/29 00:56:00.000,n,115,1.8,1.08,5.4,10.6,74.3,1023.62,0,0,0,0,0.019188
2022/07/29 00:57:00.005,n,156,2.16,1.08,5.4,10.6,74.3,1023.62,0,0,0,0,0.019188
2022/07/29 00:58:00.002,n,271,2.16,1.08,2.88,10.6,73.8,1023.62,0,0,0,0,0.022697
2022/07/29 00:59:00.000,n,313,1.08,0.36,3.96,10.6,73.6,1023.62,0,0,0,0,0.023537
2022/07/29 01:00:00.000,n,94,0.72,0.36,1.44,10.5,73.6,1023.62,0,0,0,0,0.017433
2022/07/29 01:01:00.009,n,197,2.16,0.36,5.4,10.5,73.7,1023.62,0,0,0,0,0.021782
2022/07/29 01:02:00.007,n,163,2.52,1.8,5.76,10.5,73.9,1023.62,0,0,0,0,0.020905
2022/07/29 01:03:00.004,n,231,0.36,0.36,1.08,10.5,73.7,1023.52,0,0,0,0,0.017433
2022/07/29 01:04:00.002,n,174,3.24,0.72,6.48,10.5,73.8,1023.52,0,0,0,0,0.019188
2022/07/29 01:05:00.000,n,107,3.6,2.88,4.32,10.4,73.9,1023.52,0,0,0,0,0.016556
2022/07/29 01:06:00.000,n,177,2.88,1.8,5.04,10.4,73.9,1023.52,0,0,0,0,0.020905
2022/07/29 01:07:00.000,n,60,2.52,2.16,2.88,10.4,74.2,1023.52,0,0,0,0,0.018311
2022/07/29 01:08:00.007,n,81,2.16,1.8,2.52,10.4,74.2,1023.52,0,0,0,0,0.017433
2022/07/29 01:09:00.005,n,134,2.52,2.52,2.88,10.4,74.4,1023.52,0,0,0,0,0.014839
2022/07/29 01:10:00.002,n,277,2.52,2.16,2.88,10.3,74.3,1023.52,0,0,0,0,0.014839
2022/07/29 01:11:00.000,n,147,3.6,2.52,6.84,10.3,74.6,1023.62,0,0,0,0,0.026169
2022/07/29 01:12:00.009,n,15,1.08,0.72,1.8,10.3,74.8,1023.62,0,0,0,0,0.028763
2022/07/29 01:13:00.000,n,149,3.96,1.44,5.4,10.3,74.4,1023.52,0,0,0,0,0.028763
2022/07/29 01:14:00.000,n,141,2.16,1.44,2.52,10.3,74.4,1023.62,0,0,0,0,0.027046
2022/07/29 01:15:00.000,n,153,0.72,0,3.6,10.3,74.4,1023.62,0,0,0,0,0.030518
2022/07/29 01:16:00.000,n,176,0.72,0.36,1.44,10.3,74.5,1023.62,0,0,0,0,0.027046
2022/07/29 01:17:00.000,n,141,0.36,0,0.36,10.3,74.6,1023.62,0,0,0,0,0.02964
2022/07/29 01:18:00.008,n,206,1.8,1.44,2.16,10.3,74.7,1023.62,0,0,0,0,0.026169
2022/07/29 01:19:00.005,n,113,1.8,1.44,2.16,10.3,74.8,1023.62,0,0,0,0,0.025253
2022/07/29 01:20:00.005,n,98,1.08,0.72,1.8,10.2,75,1023.62,0,0,0,0,0.024414
2022/07/29 01:21:00.016,n,29,1.08,0.36,2.52,10.3,75.3,1023.62,0,0,0,0,0.026169
2022/07/29 01:22:00.000,n,181,2.16,0.72,5.4,10.3,75,1023.62,0,0,0,0,0.025253
2022/07/29 01:23:00.000,n,136,3.6,2.52,7.2,10.3,74.9,1023.62,0,0,0,0,0.026169
2022/07/29 01:24:00.000,n,129,5.04,4.32,6.12,10.2,75,1023.52,0,0,0,0,0.027046
2022/07/29 01:25:00.005,n,120,1.8,0.36,3.24,10.2,75.2,1023.52,0,0,0,0,0.026169
2022/07/29 01:26:00.004,n,142,2.16,0.36,3.24,10.2,75.4,1023.52,0,0,0,0,0.025253
2022/07/29 01:27:00.001,n,152,1.44,0.36,2.16,10.2,75.5,1023.52,0,0,0,0,0.019188
2022/07/29 01:28:00.000,n,177,0.72,0.36,1.08,10.2,75.5,1023.52,0,0,0,0,0.021782
2022/07/29 01:29:00.012,n,143,5.76,3.6,6.48,10.1,75.6,1023.52,0,0,0,0,0.022659
2022/07/29 01:30:00.011,n,163,5.04,2.16,7.2,10.1,75.7,1023.52,0,0,0,0,0.019188
2022/07/29 01:31:00.000,n,156,5.4,2.52,8.28,10.1,75.8,1023.62,0,0,0,0,0.023537
2022/07/29 01:32:00.000,n,254,1.8,1.08,2.52,10.1,76,1023.62,0,0,0,0,0.019188
2022/07/29 01:33:00.002,n,46,1.44,0.72,2.52,10.1,76,1023.62,0,0,0,0,0.019188
2022/07/29 01:34:00.000,n,132,0.72,0,1.08,10.1,76.1,1023.62,0,0,0,0,0.020065
2022/07/29 01:35:00.000,n,124,3.96,3.24,4.32,10.1,76,1023.62,0,0,0,0,0.020065
2022/07/29 01:36:00.009,n,88,1.44,0.72,2.52,10.1,76,1023.52,0,0,0,0,0.023537
2022/07/29 01:37:00.006,n,147,4.32,2.16,7.2,10.1,75.8,1023.52,0,0,0,0,0.023537
2022/07/29 01:38:00.003,n,138,7.92,5.76,8.64,10.1,75.8,1023.52,0,0,0,0,0.021782
2022/07/29 01:39:00.001,n,178,7.56,6.12,10.8,10,75.8,1023.52,0,0,0,0,0.019188
2022/07/29 01:40:00.000,n,106,2.52,0.72,4.32,10,75.8,1023.52,0,0,0,0,0.018311
2022/07/29 01:41:00.000,n,153,6.48,3.96,9.36,10,75.9,1023.52,0,0,0,0,0.018311
2022/07/29 01:42:00.000,n,196,0.72,0.36,1.44,10,76,1023.42,0,0,0,0,0.020905
2022/07/29 01:43:00.006,n,169,5.4,3.96,7.92,9.9,75.9,1023.42,0,0,0,0,0.015717
2022/07/29 01:44:00.000,n,137,4.32,3.6,8.64,9.9,76,1023.42,0,0,0,0,0.019188
2022/07/29 01:45:00.001,n,151,9.72,6.48,10.8,9.9,76,1023.42,0,0,0,0,0.014839
2022/07/29 01:46:00.006,n,152,6.84,3.96,9.36,9.9,76.1,1023.32,0,0,0,0,0.027847
2022/07/29 01:47:00.007,n,147,7.2,5.76,7.56,9.9,76.1,1023.32,0,0,0,0,0.027008
2022/07/29 01:48:00.013,n,166,9,4.68,11.88,9.9,76.3,1023.32,0,0,0,0,0.028763
2022/07/29 01:49:00.001,n,154,10.8,3.6,12.24,9.8,76.2,1023.32,0,0,0,0,0.027008
2022/07/29 01:50:00.000,n,171,7.92,4.32,10.440002,9.8,76.3,1023.22,0,0,0,0,0.027847
2022/07/29 01:51:00.000,n,156,1.8,1.08,2.16,9.8,76.3,1023.22,0,0,0,0,0.030479
2022/07/29 01:52:00.001,n,137,2.88,2.52,3.24,9.8,76.4,1023.22,0,0,0,0,0.027008
2022/07/29 01:53:00.006,n,166,12.96,10.08,16.56,9.8,76.4,1023.22,0,0,0,0,0.027008
2022/07/29 01:54:00.000,n,172,5.76,3.24,9.72,9.8,76.5,1023.22,0,0,0,0,0.022659
2022/07/29 01:55:00.000,n,163,7.56,4.68,10.08,9.8,76.3,1023.22,0,0,0,0,0.027008
2022/07/29 01:56:00.005,n,134,3.6,2.88,4.68,9.8,76.3,1023.22,0,0,0,0,0.025253
2022/07/29 01:57:00.011,n,174,6.12,4.68,9.72,9.8,76.4,1023.22,0,0,0,0,0.023499
2022/07/29 01:58:00.001,n,166,6.12,4.32,8.64,9.8,76.4,1023.12,0,0,0,0,0.022659
2022/07/29 01:59:00.000,n,184,4.32,3.96,4.68,9.8,76.5,1023.12,0,0,0,0,0.022659
2022/07/29 02:00:00.000,n,153,2.16,1.44,2.52,9.8,76.4,1023.12,0,0,0,0,0.026131
2022/07/29 02:01:00.001,n,171,1.8,0.72,6.12,9.8,76.3,1023.12,0,0,0,0,0.022659
2022/07/29 02:02:00.006,n,259,1.44,0.72,1.8,9.8,76.7,1023.12,0,0,0,0,0.025253
2022/07/29 02:03:00.007,n,336,8.28,4.68,10.440002,9.8,76.6,1023.12,0,0,0,0,0.027809
2022/07/29 02:04:00.012,n,276,3.6,3.24,3.96,9.9,76.6,1023.12,0,0,0,0,0.030441
2022/07/29 02:05:00.000,n,227,0.72,0.36,1.08,9.9,76.5,1023.12,0,0,0,0,0.026093
2022/07/29 02:06:00.006,n,229,1.08,0.36,1.8,9.9,76.3,1023.12,0,0,0,0,0.029602
2022/07/29 02:07:00.000,n,128,3.24,2.52,4.32,9.9,76.2,1023.12,0,0,0,0,0.028725
2022/07/29 02:08:00.000,n,135,2.16,1.8,3.24,9.8,76.1,1023.12,0,0,0,0,0.02697
2022/07/29 02:09:00.005,n,111,2.52,2.16,2.88,9.8,76.1,1023.12,0,0,0,0,0.028725
2022/07/29 02:10:00.000,n,147,2.88,2.52,3.24,9.8,76,1023.12,0,0,0,0,0.028725
2022/07/29 02:11:00.000,n,151,3.6,3.24,3.96,9.8,76,1023.12,0,0,0,0,0.029602
2022/07/29 02:12:00.004,n,161,7.56,4.32,9,9.8,76,1023.02,0,0,0,0,0.024376
2022/07/29 02:13:00.009,n,135,3.24,2.52,4.32,9.8,76,1023.02,0,0,0,0,0.029602
2022/07/29 02:14:00.014,n,189,2.16,1.8,2.52,9.8,76.1,1023.02,0,0,0,0,0.028725
2022/07/29 02:15:00.004,n,160,9,5.76,10.440002,9.8,76,1023.02,0,0,0,0,0.028725
2022/07/29 02:16:00.000,n,241,3.24,2.88,3.96,9.8,76,1023.02,0,0,0,0,0.02697
2022/07/29 02:17:00.000,n,144,4.68,3.96,5.04,9.8,76,1023.02,0,0,0,0,0.025253
2022/07/29 02:18:00.002,n,200,4.32,3.6,5.04,9.8,75.9,1023.02,0,0,0,0,0.026093
2022/07/29 02:19:00.000,n,154,8.28,5.76,11.52,9.8,75.9,1022.92,0,0,0,0,0.028725
2022/07/29 02:20:00.000,n,155,2.88,2.52,3.6,9.8,75.9,1022.92,0,0,0,0,0.02697
2022/07/29 02:21:00.002,n,133,2.88,2.52,3.6,9.8,75.9,1022.92,0,0,0,0,0.027809
2022/07/29 02:22:00.008,n,131,3.24,2.88,3.6,9.8,75.8,1022.92,0,0,0,0,0.02697
2022/07/29 02:23:00.012,n,167,3.24,2.52,3.96,9.8,75.9,1022.92,0,0,0,0,0.02346
2022/07/29 02:24:00.001,n,147,4.32,3.96,4.68,9.8,75.8,1022.92,0,0,0,0,0.026093
2022/07/29 02:25:00.000,n,206,2.88,2.16,2.88,9.8,75.8,1022.92,0,0,0,0,0.027809
2022/07/29 02:26:00.000,n,145,7.92,7.2,8.28,9.8,75.7,1022.82,0,0,0,0,0.025253
2022/07/29 02:27:00.000,n,183,3.6,3.24,3.96,9.8,75.8,1022.82,0,0,0,0,0.025253
2022/07/29 02:28:00.007,n,144,6.12,5.4,6.84,9.7,75.7,1022.82,0,0,0,0,0.024376
2022/07/29 02:29:00.000,n,161,9.72,6.12,11.16,9.7,75.7,1022.82,0,0,0,0,0.026093
2022/07/29 02:30:00.000,n,116,2.16,1.44,3.6,9.7,75.8,1022.82,0,0,0,0,0.024376
2022/07/29 02:31:00.005,n,165,0.72,0.36,1.44,9.7,75.8,1022.82,0,0,0,0,0.024376
2022/07/29 02:32:00.010,n,108,0.36,0,1.08,9.7,75.8,1022.82,0,0,0,0,0.027809
2022/07/29 02:33:00.015,n,139,3.96,3.24,5.04,9.7,75.7,1022.82,0,0,0,0,0.026093
2022/07/29 02:34:00.000,n,225,1.44,1.08,1.8,9.7,75.8,1022.82,0,0,0,0,0.026093
2022/07/29 02:35:00.000,n,15,0.72,0.36,1.8,9.7,76.1,1022.82,0,0,0,0,0.026093
2022/07/29 02:36:00.000,n,139,1.8,1.44,2.52,9.7,75.8,1022.82,0,0,0,0,0.024376
2022/07/29 02:37:00.003,n,199,0.72,0.36,1.08,9.7,75.6,1022.82,0,0,0,0,0.021744
2022/07/29 02:38:00.000,n,236,0.36,0.36,0.72,9.7,75.7,1022.82,0,0,0,0,0.025253
2022/07/29 02:39:00.000,n,151,0.72,0.72,1.08,9.7,75.7,1022.82,0,0,0,0,0.020027
2022/07/29 02:40:00.003,n,91,2.16,1.8,2.88,9.7,75.9,1022.82,0,0,0,0,0.02346
2022/07/29 02:41:00.007,n,123,1.44,1.08,1.44,9.7,75.7,1022.82,0,0,0,0,0.020027
2022/07/29 02:42:00.012,n,64,1.8,1.44,2.16,9.7,75.7,1022.72,0,0,0,0,0.021744
2022/07/29 02:43:00.002,n,54,1.44,1.08,2.16,9.7,75.9,1022.72,0,0,0,0,0.020866
2022/07/29 02:44:00.000,n,82,1.8,1.44,2.16,9.7,75.8,1022.72,0,0,0,0,0.027885
2022/07/29 02:45:00.000,n,105,1.44,0.36,2.52,9.7,75.7,1022.72,0,0,0,0,0.031395
2022/07/29 02:46:00.000,n,172,1.8,1.08,2.16,9.6,75.7,1022.72,0,0,0,0,0.02964
2022/07/29 02:47:00.002,n,124,2.52,1.8,2.88,9.7,75.9,1022.62,0,0,0,0,0.02964
2022/07/29 02:48:00.008,n,125,2.16,1.8,2.52,9.7,75.7,1022.62,0,0,0,0,0.028801
2022/07/29 02:49:00.000,n,116,1.8,1.44,1.8,9.6,75.7,1022.62,0,0,0,0,0.028801
2022/07/29 02:50:00.001,n,165,0.72,0.36,2.16,9.6,75.7,1022.62,0,0,0,0,0.028801
2022/07/29 02:51:00.006,n,23,1.08,1.08,1.08,9.6,75.7,1022.62,0,0,0,0,0.02964
2022/07/29 02:52:00.000,n,308,0.72,0.36,1.44,9.6,75.8,1022.62,0,0,0,0,0.02964
2022/07/29 02:53:00.001,n,108,0.72,0.36,1.08,9.6,76.1,1022.62,0,0,0,0,0.031395
2022/07/29 02:54:00.000,n,38,1.8,1.08,2.52,9.6,76.1,1022.62,0,0,0,0,0.030518
2022/07/29 02:55:00.000,n,44,1.8,1.08,2.88,9.6,76.3,1022.62,0,0,0,0,0.028801
2022/07/29 02:56:00.001,n,251,0.72,0.36,4.32,9.7,76.1,1022.62,0,0,0,0,0.027008
2022/07/29 02:57:00.006,n,78,1.44,0.36,2.52,9.7,75.8,1022.62,0,0,0,0,0.02964
2022/07/29 02:58:00.011,n,16,0.36,0,0.72,9.7,75.6,1022.62,0,0,0,0,0.031395
2022/07/29 02:59:00.001,n,51,1.08,0.72,1.8,9.7,75.5,1022.62,0,0,0,0,0.02964
2022/07/29 03:00:00.006,n,88,1.44,0.36,2.52,9.7,75.9,1022.62,0,0,0,0,0.030518
2022/07/29 03:01:00.000,n,113,2.52,2.16,2.88,9.8,75.2,1022.62,0,0,0,0,0.031395
2022/07/29 03:02:00.000,n,129,1.8,1.08,2.16,9.7,75,1022.62,0,0,0,0,0.030518
2022/07/29 03:03:00.005,n,289,1.8,1.44,2.16,9.7,75.1,1022.62,0,0,0,0,0.027008
2022/07/29 03:04:00.000,n,165,0.36,0,0.72,9.6,75.5,1022.62,0,0,0,0,0.027885
2022/07/29 03:05:00.000,n,282,1.8,1.08,2.16,9.6,75.5,1022.62,0,0,0,0,0.027885
2022/07/29 03:06:00.004,n,211,2.52,2.16,2.88,9.6,75.8,1022.62,0,0,0,0,0.02964
2022/07/29 03:07:00.009,n,228,0.72,0.36,1.08,9.6,75.5,1022.62,0,0,0,0,0.02964
2022/07/29 03:08:00.000,n,38,0.72,0.36,1.44,9.6,75.4,1022.62,0,0,0,0,0.027008
2022/07/29 03:09:00.003,n,336,1.44,1.08,1.8,9.6,75.6,1022.62,0,0,0,0,0.028801
2022/07/29 03:10:00.000,n,53,1.44,0.72,2.16,9.6,75.7,1022.62,0,0,0,0,0.027008
2022/07/29 03:11:00.000,n,82,2.88,2.52,3.24,9.6,75.9,1022.62,0,0,0,0,0.028801
2022/07/29 03:12:00.002,n,52,3.24,3.24,3.6,9.6,76,1022.62,0,0,0,0,0.02964
2022/07/29 03:13:00.000,n,82,1.8,1.08,2.16,9.6,75.7,1022.62,0,0,0,0,0.030518
2022/07/29 03:14:00.000,n,182,1.08,0.72,1.08,9.5,75.6,1022.62,0,0,0,0,0.027008
2022/07/29 03:15:00.002,n,125,2.52,2.16,2.52,9.5,75.8,1022.62,0,0,0,0,0.030518
2022/07/29 03:16:00.008,n,129,1.44,1.08,1.44,9.5,75.6,1022.62,0,0,0,0,0.026169
2022/07/29 03:17:00.014,n,104,2.16,1.44,2.88,9.5,75.7,1022.52,0,0,0,0,0.027885
2022/07/29 03:18:00.002,n,14,3.96,2.88,5.04,9.5,76.2,1022.52,0,0,0,0,0.032234
2022/07/29 03:19:00.000,n,137,3.24,2.16,4.68,9.5,75.9,1022.52,0,0,0,0,0.030518
2022/07/29 03:20:00.000,n,1,2.52,1.08,3.6,9.5,75.9,1022.52,0,0,0,0,0.027885
2022/07/29 03:21:00.001,n,16,2.16,1.8,2.52,9.5,76.2,1022.52,0,0,0,0,0.030518
2022/07/29 03:22:00.006,n,65,1.08,0.36,1.8,9.5,76,1022.52,0,0,0,0,0.027008
2022/07/29 03:23:00.000,n,203,1.08,0.72,1.08,9.5,75.6,1022.52,0,0,0,0,0.031395
2022/07/29 03:24:00.000,n,127,1.8,1.8,2.16,9.5,75.6,1022.52,0,0,0,0,0.028801
2022/07/29 03:25:00.005,n,107,1.44,1.08,2.16,9.5,75.5,1022.52,0,0,0,0,0.025291
2022/07/29 03:26:00.011,n,209,1.44,0.36,2.52,9.5,75.5,1022.52,0,0,0,0,0.027008
2022/07/29 03:27:00.000,n,178,2.16,1.8,2.88,9.4,75.4,1022.52,0,0,0,0,0.024414
2022/07/29 03:28:00.000,n,198,4.68,4.32,5.4,9.4,75.3,1022.52,0,0,0,0,0.025291
2022/07/29 03:29:00.000,n,170,5.04,3.96,9,9.4,75.4,1022.42,0,0,0,0,0.027008
2022/07/29 03:30:00.000,n,143,9,8.64,9.72,9.4,75.4,1022.42,0,0,0,0,0.024414
2022/07/29 03:31:00.004,n,263,1.44,0.72,1.8,9.4,75.7,1022.42,0,0,0,0,0.025291
2022/07/29 03:32:00.000,n,134,2.52,1.8,2.52,9.3,75.6,1022.42,0,0,0,0,0.024414
2022/07/29 03:33:00.000,n,157,2.16,1.44,3.24,9.3,75.7,1022.42,0,0,0,0,0.026169
2022/07/29 03:34:00.004,n,152,6.84,4.32,9.72,9.3,75.6,1022.42,0,0,0,0,0.025291
2022/07/29 03:35:00.010,n,159,7.2,3.6,10.08,9.3,75.6,1022.42,0,0,0,0,0.025291
2022/07/29 03:36:00.015,n,174,4.68,3.24,5.76,9.3,75.7,1022.42,0,0,0,0,0.024414
2022/07/29 03:37:00.000,n,114,1.44,0.36,2.88,9.3,75.8,1022.42,0,0,0,0,0.025291
2022/07/29 03:38:00.000,n,181,2.52,1.8,2.88,9.2,75.6,1022.42,0,0,0,0,0.024414
2022/07/29 03:39:00.000,n,174,3.24,1.8,3.96,9.2,75.7,1022.32,0,0,0,0,0.025291
2022/07/29 03:40:00.002,n,94,0.72,0.36,1.08,9.2,75.6,1022.32,0,0,0,0,0.024414
2022/07/29 03:41:00.007,n,79,2.16,1.44,2.52,9.2,75.9,1022.32,0,0,0,0,0.025291
2022/07/29 03:42:00.000,n,188,2.88,1.8,3.6,9.2,75.8,1022.32,0,0,0,0,0.025291
2022/07/29 03:43:00.002,n,116,3.96,3.24,4.68,9.2,75.8,1022.32,0,0,0,0,0.023537
2022/07/29 03:44:00.007,n,167,2.16,1.08,2.88,9.2,75.8,1022.32,0,0,0,0,0.025291
2022/07/29 03:45:00.012,n,123,2.16,1.08,2.52,9.2,75.8,1022.32,0,0,0,0,0.020943
2022/07/29 03:46:00.001,n,37,1.8,1.08,2.16,9.2,75.8,1022.32,0,0,0,0,0.022659
2022/07/29 03:47:00.000,n,65,1.44,0.72,2.16,9.2,76,1022.32,0,0,0,0,0.020065
2022/07/29 03:48:00.000,n,171,0.72,0.36,1.08,9.2,75.7,1022.32,0,0,0,0,0.02182
2022/07/29 03:49:00.000,n,112,2.52,1.44,3.6,9.2,76,1022.32,0,0,0,0,0.022659
2022/07/29 03:50:00.005,n,157,1.44,1.08,2.52,9.2,75.7,1022.32,0,0,0,0,0.023537
2022/07/29 03:51:00.010,n,137,1.44,1.08,1.8,9.2,75.7,1022.32,0,0,0,0,0.020943
2022/07/29 03:52:00.000,n,125,1.44,1.44,1.8,9.2,75.8,1022.32,0,0,0,0,0.020065
2022/07/29 03:53:00.005,n,166,0.36,0.36,0.72,9.1,75.8,1022.32,0,0,0,0,0.025291
2022/07/29 03:54:00.008,n,109,1.44,1.08,1.8,9.1,75.9,1022.32,0,0,0,0,0.033989
2022/07/29 03:55:00.000,n,120,0.72,0.36,1.08,9.1,75.8,1022.32,0,0,0,0,0.033989
2022/07/29 03:56:00.002,n,134,2.16,1.8,2.52,9.1,75.9,1022.32,0,0,0,0,0.032234
2022/07/29 03:57:00.000,n,127,1.8,1.8,2.16,9.1,75.8,1022.32,0,0,0,0,0.028763
2022/07/29 03:58:00.000,n,152,1.44,0.72,2.16,9.1,75.9,1022.32,0,0,0,0,0.02964
2022/07/29 03:59:00.001,n,153,1.08,0.72,1.8,9.1,75.9,1022.32,0,0,0,0,0.031357
2022/07/29 04:00:00.006,n,132,1.44,1.08,2.16,9.1,76,1022.32,0,0,0,0,0.030518
2022/07/29 04:01:00.011,n,135,2.52,2.52,2.88,9,76,1022.32,0,0,0,0,0.027885
2022/07/29 04:02:00.000,n,110,2.52,2.16,2.88,9,76.1,1022.32,0,0,0,0,0.031357
2022/07/29 04:03:00.005,n,77,2.88,2.52,3.6,9,76.3,1022.22,0,0,0,0,0.030518
2022/07/29 04:04:00.000,n,126,2.88,2.52,2.88,9,76.4,1022.22,0,0,0,0,0.02964
2022/07/29 04:05:00.000,n,157,0.36,0,0.72,9,76.4,1022.22,0,0,0,0,0.030518
2022/07/29 04:06:00.004,n,164,3.24,2.52,3.6,9,76.3,1022.22,0,0,0,0,0.028763
2022/07/29 04:07:00.000,n,133,3.96,3.6,4.68,9,76.4,1022.22,0,0,0,0,0.027885
2022/07/29 04:08:00.000,n,149,3.6,3.24,3.96,9,76.4,1022.22,0,0,0,0,0.02964
2022/07/29 04:09:00.003,n,152,2.52,0.36,4.68,9,76.4,1022.22,0,0,0,0,0.028763
2022/07/29 04:10:00.008,n,184,2.88,1.44,3.96,9,76.5,1022.22,0,0,0,0,0.028763
2022/07/29 04:11:00.013,n,103,2.52,1.8,2.88,9,76.5,1022.22,0,0,0,0,0.031357
2022/07/29 04:12:00.005,n,221,1.8,1.44,2.16,9,76.5,1022.22,0,0,0,0,0.026169
2022/07/29 04:13:00.000,n,55,1.8,1.08,1.8,9,76.5,1022.22,0,0,0,0,0.028763
2022/07/29 04:14:00.000,n,273,3.24,1.08,4.68,9,76.7,1022.22,0,0,0,0,0.027008
2022/07/29 04:15:00.001,n,243,2.52,2.16,2.52,9,76.9,1022.22,0,0,0,0,0.027885
2022/07/29 04:16:00.006,n,28,1.8,1.44,2.52,9,76.8,1022.22,0,0,0,0,0.02964
2022/07/29 04:17:00.000,n,90,1.44,1.08,2.16,9,76.5,1022.22,0,0,0,0,0.026169
2022/07/29 04:18:00.000,n,164,1.8,0.36,3.24,9,76.6,1022.22,0,0,0,0,0.027008
2022/07/29 04:19:00.005,n,39,0.72,0.72,1.08,9,76.2,1022.22,0,0,0,0,0.023537
2022/07/29 04:20:00.011,n,164,1.44,1.08,1.8,9,76.1,1022.22,0,0,0,0,0.023537
2022/07/29 04:21:00.016,n,338,1.8,1.44,1.8,9,76.4,1022.22,0,0,0,0,0.023537
2022/07/29 04:22:00.000,n,137,1.44,0.72,2.16,9,76.3,1022.22,0,0,0,0,0.020943
2022/07/29 04:23:00.000,n,285,2.16,1.8,2.52,9,76.3,1022.22,0,0,0,0,0.026169
2022/07/29 04:24:00.000,n,178,1.8,0.36,2.52,9,76.3,1022.22,0,0,0,0,0.024376
2022/07/29 04:25:00.002,n,130,2.16,1.8,2.88,9,76.2,1022.22,0,0,0,0,0.026169
2022/07/29 04:26:00.008,n,71,3.96,3.24,4.32,9,76.6,1022.22,0,0,0,0,0.022659
2022/07/29 04:27:00.000,n,156,1.8,1.44,1.8,9,76.3,1022.22,0,0,0,0,0.024376
2022/07/29 04:28:00.002,n,253,0.72,0.72,1.08,9,76.1,1022.22,0,0,0,0,0.025291
2022/07/29 04:29:00.007,n,126,2.16,1.44,2.52,9,76.2,1022.32,0,0,0,0,0.025291
2022/07/29 04:30:00.012,n,195,0.36,0.36,1.08,9,76.3,1022.22,0,0,0,0,0.026169
2022/07/29 04:31:00.001,n,116,1.44,1.08,1.44,9,76.3,1022.22,0,0,0,0,0.024376
2022/07/29 04:32:00.000,n,222,1.44,1.08,1.44,9,76.1,1022.22,0,0,0,0,0.026169
2022/07/29 04:33:00.000,n,138,2.52,2.16,2.88,9,76.4,1022.32,0,0,0,0,0.021782
2022/07/29 04:34:00.001,n,137,2.16,2.16,2.52,9,76.1,1022.32,0,0,0,0,0.024376
2022/07/29 04:35:00.006,n,164,2.88,0.72,3.96,9,76.3,1022.32,0,0,0,0,0.026169
2022/07/29 04:36:00.000,n,195,2.52,2.16,2.88,8.9,76.2,1022.32,0,0,0,0,0.020027
2022/07/29 04:37:00.000,n,150,3.6,3.24,3.96,8.9,76.1,1022.32,0,0,0,0,0.026169
2022/07/29 04:38:00.005,n,163,1.8,1.44,1.8,8.9,76.3,1022.32,0,0,0,0,0.021782
2022/07/29 04:39:00.010,n,248,1.8,1.8,2.16,8.9,76.4,1022.32,0,0,0,0,0.022659
2022/07/29 04:40:00.000,n,144,3.96,2.16,5.04,8.9,76.4,1022.32,0,0,0,0,0.025291
2022/07/29 04:41:00.000,n,147,2.16,1.8,2.52,8.9,76.4,1022.32,0,0,0,0,0.025291
2022/07/29 04:42:00.000,n,229,0.72,0.36,1.44,8.9,76.4,1022.32,0,0,0,0,0.023537
2022/07/29 04:43:00.000,n,170,2.52,1.8,2.88,8.9,76.4,1022.32,0,0,0,0,0.022659
2022/07/29 04:44:00.003,n,228,1.08,0.72,1.08,8.9,76.4,1022.32,0,0,0,0,0.022659
2022/07/29 04:45:00.008,n,122,1.44,0.72,1.44,8.9,76.5,1022.32,0,0,0,0,0.023537
2022/07/29 04:46:00.000,n,120,2.16,1.44,2.52,8.8,76.4,1022.32,0,0,0,0,0.021782
2022/07/29 04:47:00.002,n,185,5.4,4.68,6.48,8.8,76.3,1022.32,0,0,0,0,0.021782
2022/07/29 04:48:00.008,n,154,5.76,4.32,7.2,8.8,76.5,1022.42,0,0,0,0,0.025291
2022/07/29 04:49:00.000,n,169,3.6,3.24,3.96,8.8,76.6,1022.42,0,0,0,0,0.019188
2022/07/29 04:50:00.001,n,185,7.92,7.2,8.28,8.8,76.4,1022.42,0,0,0,0,0.021782
2022/07/29 04:51:00.000,n,203,6.48,6.12,7.2,8.8,76.3,1022.42,0,0,0,0,0.018311
2022/07/29 04:52:00.000,n,168,3.6,2.52,3.96,8.8,76.4,1022.42,0,0,0,0,0.022659
2022/07/29 04:53:00.001,n,80,1.44,0.36,2.16,8.8,76.5,1022.42,0,0,0,0,0.020943
2022/07/29 04:54:00.006,n,157,2.16,1.8,2.88,8.8,76.4,1022.42,0,0,0,0,0.020943
2022/07/29 04:55:00.011,n,168,3.6,3.24,4.68,8.8,76.5,1022.42,0,0,0,0,0.020943
2022/07/29 04:56:00.000,n,180,2.52,1.8,2.52,8.7,76.5,1022.42,0,0,0,0,0.018311
2022/07/29 04:57:00.004,n,198,3.24,2.52,3.96,8.7,76.5,1022.42,0,0,0,0,0.018311
2022/07/29 04:58:00.000,n,134,3.96,2.16,5.4,8.7,76.5,1022.42,0,0,0,0,0.025253
2022/07/29 04:59:00.000,n,237,4.32,3.6,4.68,8.7,76.6,1022.42,0,0,0,0,0.030441